Theta_e
310 309 309 309 309 309 309 309 309 309 309 308 309 308 308 308 308 308 307 307 307 307 307 307 307 307 307 308 310 313 314 314 314 314 315 316 315 315 317 317 317 315 314 313 314 316 315 314 315 314 316 319 319 321 319 322 330 330 326 321 323 327 328 332 334 325 320 324 325 322 320 319 321 321 316 314 316 318 317 318 319 316 315 312 310 311 311 311
310 310 310 310 309 309 309 309 309 309 309 308 308 308 308 308 308 308 308 307 307 307 307 307 307 307 307 307 309 312 313 315 317 317 317 317 316 316 317 318 316 314 313 313 315 315 316 318 314 315 320 322 321 319 320 321 323 330 330 323 325 330 329 330 330 323 318 318 321 323 321 318 319 320 316 316 320 319 317 318 318 317 317 311 307 307 308 308
310 310 310 310 310 310 309 309 309 309 309 309 309 309 308 308 308 308 308 308 308 308 307 307 307 307 307 307 311 313 314 317 320 321 319 319 319 318 318 318 317 314 312 312 315 315 317 319 313 316 321 320 323 322 324 323 322 331 329 324 332 332 327 327 325 321 320 318 320 321 318 317 319 317 315 317 321 320 319 318 318 318 319 318 309 304 306 305
311 311 310 310 310 310 310 310 310 309 309 309 309 309 308 308 308 308 308 308 308 308 308 308 308 308 308 309 312 313 315 316 317 319 318 317 318 319 319 319 317 314 312 313 317 317 316 316 313 317 318 320 327 324 326 326 323 327 323 325 334 327 322 325 323 321 321 318 318 320 317 317 318 316 316 318 318 318 318 316 317 319 318 320 311 304 304 303
311 311 311 310 310 310 310 310 310 310 309 309 309 309 309 309 309 308 308 308 308 308 308 308 308 308 309 310 312 314 316 313 313 319 319 316 317 318 319 319 316 313 311 313 318 317 315 314 314 318 317 320 324 321 328 330 323 323 322 324 327 322 319 321 322 322 321 318 317 319 317 317 316 315 317 318 317 316 318 317 317 317 317 319 312 306 304 303
311 311 311 311 310 310 310 310 310 310 310 310 310 310 310 309 309 309 309 309 308 308 308 308 308 308 310 311 313 315 314 311 314 318 318 316 316 317 319 317 314 312 311 314 316 314 315 315 316 321 319 319 322 320 324 325 320 322 324 323 322 319 318 318 320 320 319 316 316 317 316 316 316 316 319 318 316 315 319 322 319 317 314 313 310 306 305 305
311 311 311 310 310 310 310 310 310 310 310 310 310 310 310 310 310 310 310 309 309 309 309 308 308 309 310 312 316 320 319 316 315 315 316 317 316 317 317 315 312 311 311 314 314 315 318 318 317 322 321 320 323 321 320 319 319 322 323 322 321 319 319 319 318 318 318 317 317 316 314 315 317 317 317 316 315 314 317 321 321 316 309 309 310 308 307 306
311 310 310 310 310 310 309 310 309 310 310 310 310 310 310 311 311 311 310 310 310 309 309 308 309 310 311 314 319 324 323 320 315 316 318 318 317 316 316 314 311 310 311 312 313 315 318 319 319 320 320 321 321 321 319 318 320 322 323 322 320 319 319 319 317 317 318 317 316 315 314 316 316 315 315 315 314 313 315 317 319 316 312 313 313 310 308 307
311 311 311 310 310 310 310 310 310 310 310 310 310 310 310 310 310 311 310 311 310 309 309 308 309 310 312 315 317 319 319 318 317 319 320 318 317 315 315 313 311 310 310 311 313 313 316 319 321 319 320 322 319 319 320 318 321 323 322 321 318 318 317 316 317 317 317 317 315 315 316 316 314 314 315 315 314 314 315 316 316 316 317 317 313 310 308 308
313 312 312 312 312 312 312 312 312 312 312 311 311 310 310 310 310 310 310 310 310 310 310 308 309 312 312 313 315 315 315 317 318 319 319 318 317 314 314 312 311 311 310 312 312 312 315 318 319 318 319 320 318 318 318 318 320 319 318 318 317 316 316 315 316 316 315 316 316 315 316 316 314 314 315 316 316 316 316 316 314 313 315 315 313 311 308 308
313 313 313 313 314 314 314 314 314 314 314 313 313 312 312 311 310 310 310 309 310 310 310 309 309 312 314 314 315 315 315 316 317 316 317 317 316 314 313 312 311 310 310 311 312 312 313 314 316 316 316 317 317 317 318 317 317 316 315 317 317 316 316 315 315 316 314 315 318 315 315 316 313 313 315 315 317 317 316 317 316 314 314 313 313 311 309 308
314 314 315 315 315 315 315 315 314 314 313 313 313 314 313 313 312 311 310 310 309 309 309 310 309 312 316 317 316 314 314 315 315 315 315 315 315 314 313 312 311 311 311 311 311 313 313 314 315 316 318 316 316 317 316 315 314 315 315 316 317 316 316 315 315 316 314 316 318 316 315 317 315 315 316 314 315 315 315 317 316 315 314 312 311 311 310 308
314 315 315 315 315 315 315 314 314 313 312 312 312 313 313 314 313 312 312 311 309 309 309 310 310 312 316 319 317 314 313 314 315 315 315 315 314 314 313 312 312 313 313 311 312 315 315 315 315 317 318 316 317 316 313 314 314 315 315 315 316 316 317 315 315 316 314 315 317 316 316 318 318 316 315 314 314 313 315 315 314 314 313 312 311 311 311 309
314 315 315 315 315 315 315 315 314 313 312 311 311 311 312 312 313 314 313 312 310 308 308 309 311 313 316 319 315 314 315 314 315 315 315 315 313 313 313 313 313 314 314 312 313 315 315 315 315 315 315 316 318 315 315 318 318 316 314 316 317 316 318 316 315 317 315 315 316 315 316 317 317 316 316 315 314 313 315 316 314 313 312 311 311 311 311 310
315 315 315 315 316 316 316 315 315 314 312 311 311 310 311 311 312 313 313 313 311 309 309 311 312 314 316 318 314 314 316 314 315 315 315 315 313 313 313 313 313 313 313 312 312 313 314 314 314 316 316 315 314 314 321 324 324 321 315 318 321 318 317 315 315 316 315 314 313 315 318 316 316 316 317 315 315 315 315 317 316 314 312 311 311 311 311 310
315 315 315 316 316 316 316 316 316 315 312 311 311 310 310 310 310 312 313 312 310 309 310 312 314 315 315 315 314 315 315 315 316 315 315 315 314 314 313 312 312 312 312 312 312 312 313 314 313 316 317 314 315 319 322 323 326 326 317 317 321 319 316 316 317 317 316 315 312 314 317 318 316 316 318 317 315 314 314 315 314 313 313 312 311 310 311 311
316 316 316 316 316 317 317 317 317 315 312 312 311 310 310 310 310 311 312 311 310 310 312 315 316 314 314 313 314 316 315 314 316 316 315 314 313 314 313 312 311 312 312 312 313 312 312 313 312 315 317 316 319 322 320 319 322 322 317 317 320 318 315 315 319 319 316 315 315 314 314 316 316 317 319 319 316 314 314 315 314 312 312 312 312 310 310 311
316 316 317 317 317 317 317 317 317 315 313 312 310 311 311 312 312 312 312 312 312 311 312 316 315 312 314 315 314 316 316 314 315 315 314 313 313 314 314 312 311 311 311 312 313 312 312 315 317 319 319 317 317 318 319 319 318 318 318 319 319 317 315 315 316 316 315 314 315 316 313 313 314 314 315 315 314 314 314 315 314 313 312 312 312 311 311 310
317 317 317 317 317 318 318 318 317 315 314 312 310 312 313 315 316 314 313 315 316 314 313 316 315 313 315 317 316 315 316 315 315 314 313 313 314 314 313 312 312 312 313 314 314 314 314 317 320 320 318 316 315 315 316 316 315 316 317 316 316 316 314 314 314 314 315 314 315 315 314 313 313 312 313 313 313 313 312 313 312 312 312 312 312 312 312 311
318 317 317 317 317 318 318 318 317 315 314 312 310 313 318 321 321 318 317 319 319 318 317 317 316 316 315 316 317 316 317 316 316 316 313 313 314 314 313 312 314 314 315 318 319 316 315 318 320 319 317 316 314 314 314 315 315 314 314 314 315 314 312 312 312 313 314 314 315 316 314 313 313 313 313 313 313 313 313 312 312 312 311 311 312 312 312 312
318 318 318 318 318 318 318 318 317 315 314 313 311 315 319 317 316 317 318 319 315 311 315 315 313 316 314 314 315 316 318 317 315 315 313 313 314 314 315 313 315 316 315 320 321 315 313 316 318 317 316 314 314 314 313 314 314 314 314 314 314 314 313 312 312 313 314 313 314 315 315 313 313 314 313 313 313 313 313 312 313 312 311 312 311 312 313 312
318 318 318 318 319 319 318 317 317 315 314 313 312 313 313 309 309 311 311 316 315 309 311 313 310 313 313 311 313 314 316 316 315 316 314 312 313 315 316 314 316 317 316 318 317 315 315 316 315 314 314 313 314 314 312 313 314 314 315 314 314 314 313 313 314 315 313 313 317 317 315 313 313 313 312 313 313 313 313 313 313 313 313 312 312 312 312 312
319 319 319 319 320 320 319 318 317 315 314 313 312 311 310 307 307 308 309 315 318 313 313 315 312 312 312 311 312 313 314 314 315 317 314 311 312 314 314 314 315 317 317 317 315 317 318 317 314 312 313 314 314 313 313 313 313 314 315 315 315 314 314 314 316 319 315 314 319 319 314 313 313 313 312 312 312 312 313 313 313 313 313 313 313 313 312 312
321 320 320 321 320 321 320 319 316 315 314 313 312 310 311 309 306 308 311 315 316 315 315 313 310 312 313 312 311 313 314 314 314 315 313 311 312 313 313 314 315 315 316 316 315 316 316 317 317 314 314 314 315 314 314 315 314 315 315 314 315 314 314 314 315 319 316 314 318 317 314 314 314 314 313 313 313 312 312 312 313 312 313 313 313 314 314 314
323 322 322 322 321 321 321 319 316 315 314 313 312 311 311 309 306 307 311 314 317 317 314 310 309 312 312 311 312 313 312 312 315 315 312 311 312 312 313 312 314 315 314 314 315 314 313 316 318 317 317 317 316 315 317 318 315 314 316 315 314 315 315 315 316 316 316 318 318 317 317 318 318 318 314 314 314 314 314 313 313 313 313 313 313 313 314 314
324 324 323 323 322 322 321 319 317 316 315 313 312 311 310 309 308 307 310 314 317 319 316 312 312 312 310 311 312 313 313 313 313 313 311 311 311 313 313 312 313 314 314 314 314 313 314 315 316 319 322 320 318 317 317 317 315 315 321 322 316 315 316 317 317 316 320 323 319 317 320 319 319 321 318 316 317 316 316 316 314 314 313 313 314 314 314 314
324 324 324 324 323 322 321 320 319 317 316 315 313 311 309 309 308 307 311 318 320 319 317 315 312 312 312 312 311 313 316 315 312 311 311 311 311 312 313 313 312 312 313 315 315 315 315 314 316 318 320 321 320 318 317 316 316 318 323 326 322 320 319 318 318 318 321 322 318 318 321 320 318 319 320 320 320 319 318 318 315 313 313 313 313 313 313 313
324 324 324 323 323 322 320 320 319 317 316 316 312 310 310 309 307 308 314 322 324 319 318 316 312 312 313 311 311 312 313 312 312 312 308 309 311 312 313 312 313 314 315 315 315 316 317 316 319 319 318 320 318 316 319 317 317 320 320 322 323 323 321 319 320 321 321 320 319 320 321 321 319 317 319 318 318 320 318 318 317 315 314 313 313 313 313 313
323 323 323 322 321 320 319 319 318 317 317 315 312 311 310 308 306 310 317 321 320 316 316 314 312 313 314 312 312 313 311 310 312 311 309 310 311 311 312 312 312 313 314 315 314 314 316 317 318 318 318 317 316 319 323 321 318 320 321 322 324 327 326 323 322 321 322 321 320 321 320 320 319 318 320 317 316 319 316 315 316 315 315 314 314 315 314 314
323 323 323 321 319 319 318 318 319 319 318 314 312 310 309 310 309 313 323 322 318 317 314 312 313 314 314 314 315 314 312 311 311 311 312 312 312 312 312 311 313 317 317 316 316 315 314 313 314 317 318 318 320 320 318 320 319 318 321 326 328 330 329 329 328 322 321 321 321 324 322 319 319 319 319 317 317 319 315 315 315 314 316 315 314 314 313 314
322 322 322 321 319 320 318 318 320 320 317 314 311 309 311 315 316 319 326 321 318 320 315 313 315 314 315 316 317 315 313 313 312 312 314 312 313 315 313 311 315 322 321 316 316 316 313 312 316 319 320 321 321 316 314 317 318 318 324 327 326 328 327 328 328 322 320 321 321 324 322 318 318 317 317 317 319 318 315 316 316 316 317 315 314 314 313 314
320 321 322 321 320 320 319 320 320 319 317 313 311 312 314 317 319 321 323 320 322 323 315 315 317 316 317 314 316 318 315 314 313 313 316 316 315 316 314 315 317 318 321 320 318 319 316 314 315 316 317 320 319 318 320 319 316 318 324 323 321 325 323 322 325 323 321 321 319 318 318 317 317 317 317 318 319 320 317 316 315 317 319 318 317 316 314 314
317 319 320 321 320 319 320 320 319 319 316 312 315 319 318 321 326 324 321 321 325 321 316 319 318 318 318 314 321 324 315 316 315 312 315 315 315 316 315 318 319 316 319 320 319 321 321 316 314 312 314 318 319 318 320 321 318 317 320 321 321 322 321 322 326 324 320 320 318 315 317 318 317 320 320 316 315 318 317 316 315 316 319 322 322 318 316 315
315 316 318 320 320 320 320 320 319 319 315 313 319 324 321 323 328 324 321 323 325 319 318 320 318 318 318 316 326 325 314 319 319 312 314 314 313 319 319 315 315 315 317 317 318 322 321 317 316 315 317 319 317 315 319 323 320 316 319 322 321 323 327 326 327 323 320 324 321 314 318 321 318 320 323 318 315 317 317 316 315 314 315 318 318 317 316 315
312 314 316 318 319 319 319 319 319 318 315 315 320 323 322 325 326 324 324 325 322 318 318 319 318 320 321 321 328 325 315 319 319 314 315 315 315 322 323 317 313 315 316 315 320 321 318 319 318 316 318 318 316 316 320 323 320 316 322 324 318 322 327 322 322 322 319 323 322 316 320 323 317 315 319 319 318 318 318 316 314 313 313 314 315 316 316 314
310 311 314 317 318 319 319 318 318 316 315 317 320 321 321 324 325 325 325 321 318 318 319 321 320 321 325 325 327 324 316 315 317 316 316 315 316 320 321 319 314 312 313 315 320 321 317 321 320 313 314 316 316 317 319 320 319 316 318 320 317 319 320 317 321 323 317 317 320 320 321 320 316 317 316 315 315 315 316 315 314 315 314 314 314 315 315 313
308 310 313 316 317 318 319 318 317 315 314 317 320 322 321 322 324 326 324 319 317 318 319 322 322 322 325 325 326 326 321 318 317 317 318 318 317 317 318 320 316 312 312 313 318 320 318 318 319 315 316 315 310 313 317 316 315 318 320 318 316 318 318 319 322 324 319 318 320 320 320 316 317 320 316 315 316 316 316 316 316 316 315 314 313 313 314 314
307 310 313 314 314 316 318 318 316 314 314 317 320 322 322 322 322 321 321 318 317 319 319 321 322 323 324 323 324 326 324 322 319 318 321 320 318 318 319 319 317 313 311 311 315 320 318 316 318 318 318 315 309 312 317 313 310 317 320 317 316 319 321 320 321 321 320 319 320 320 320 318 317 318 316 316 318 317 317 316 314 313 313 313 313 313 313 314
308 311 313 314 313 314 317 318 314 313 315 317 319 321 321 321 320 320 319 317 317 319 320 321 321 321 322 322 322 323 322 322 322 321 322 321 320 320 318 317 317 315 312 311 313 317 316 316 318 318 315 314 311 314 319 316 312 313 314 314 315 317 320 321 321 322 321 320 321 321 321 320 320 320 318 317 318 317 316 317 317 315 314 313 313 313 314 313
309 311 314 315 315 315 316 316 313 313 317 318 319 320 319 319 321 321 319 317 317 318 318 320 321 320 321 321 320 321 322 321 320 321 321 322 321 319 317 317 317 316 316 314 313 315 317 317 316 317 316 315 314 316 318 318 316 314 314 317 315 314 318 320 319 320 319 319 320 321 321 320 321 323 319 317 319 318 317 319 321 318 315 313 312 313 314 314
310 312 313 315 317 316 315 314 313 314 317 318 318 318 318 318 319 320 318 316 317 317 316 316 319 319 319 320 319 319 320 320 320 320 322 323 322 319 317 318 317 317 319 319 316 316 318 319 317 316 317 316 316 319 318 318 318 316 315 316 315 314 317 318 317 318 318 318 318 319 320 319 318 320 319 319 320 318 318 320 320 319 316 315 316 315 314 315
309 312 314 316 317 316 315 315 315 315 316 317 318 318 317 317 318 318 317 316 316 316 315 316 318 318 317 317 318 318 321 322 322 322 322 322 321 319 317 318 317 316 317 319 318 317 317 318 317 317 317 317 316 318 318 317 317 315 315 315 315 315 315 317 318 318 317 318 317 317 318 318 317 318 319 320 317 315 319 319 318 319 318 317 317 315 314 313
307 311 312 314 315 314 315 317 316 315 316 316 316 317 317 317 318 318 317 317 316 316 317 317 317 317 317 317 317 319 321 321 321 322 321 320 319 317 316 317 317 316 318 320 320 319 317 317 319 319 319 319 319 318 317 313 312 314 316 315 314 315 315 316 317 317 317 318 317 318 319 317 316 316 317 318 315 314 318 317 314 315 316 317 316 315 316 315
306 308 310 311 313 312 315 318 318 316 316 315 315 315 315 315 316 317 316 317 317 317 317 317 317 318 318 318 318 319 320 320 320 320 320 320 319 318 316 316 316 315 318 322 322 320 318 319 321 321 319 319 320 320 318 313 311 315 317 315 314 315 315 315 316 317 317 317 317 319 318 318 317 316 316 315 313 313 315 315 314 315 317 320 321 320 321 320
304 307 308 309 311 311 313 316 316 316 316 315 315 315 315 315 315 315 316 315 316 318 317 318 319 318 318 318 318 317 317 318 319 319 320 320 318 317 317 317 316 315 316 319 321 319 318 319 320 319 318 319 318 319 321 318 314 314 317 316 314 315 315 314 315 316 316 317 317 318 318 318 317 317 315 314 313 312 312 312 313 314 315 317 319 319 319 317
303 305 306 309 311 312 313 313 314 315 315 315 315 315 315 315 315 314 315 314 314 315 315 317 317 316 316 316 317 316 317 318 318 318 318 318 318 318 318 318 316 316 316 317 318 318 318 318 318 317 317 318 317 317 320 320 316 314 316 316 314 314 314 314 315 316 316 316 316 317 317 316 316 315 314 313 313 312 312 311 312 312 313 313 314 314 314 312
303 304 306 309 310 312 313 313 313 313 313 314 315 314 315 315 314 314 314 314 314 314 314 315 315 315 316 316 317 317 317 316 317 316 317 318 317 318 319 317 316 317 316 316 317 318 317 316 317 317 316 317 317 317 318 318 316 316 317 316 315 315 314 314 315 314 315 316 316 316 316 316 316 315 314 313 313 312 312 312 312 311 312 313 313 313 313 312
301 302 304 306 306 308 311 310 308 307 307 308 310 311 313 314 314 314 314 313 313 313 313 315 315 314 314 314 314 315 315 316 317 316 315 313 311 312 314 314 315 316 314 313 315 317 317 315 316 317 316 316 316 316 317 317 317 317 317 316 316 316 315 315 314 313 314 316 315 315 316 316 316 314 314 313 313 313 313 312 312 312 312 313 312 312 311 311
299 300 302 302 302 303 304 302 301 302 303 304 306 308 310 310 311 312 312 312 312 312 314 315 312 309 306 306 307 309 311 312 311 310 308 305 304 307 310 312 314 313 311 311 313 315 315 316 316 316 316 316 316 316 316 316 316 316 316 316 316 316 316 316 315 314 314 315 314 314 315 315 315 315 314 314 313 313 313 312 313 312 312 312 312 312 311 310
298 300 300 300 300 300 299 299 300 301 302 303 305 307 307 309 309 307 306 308 309 310 312 311 306 302 302 303 304 305 306 305 303 303 303 302 302 304 306 308 310 309 307 309 312 312 313 315 316 316 316 316 316 316 315 315 316 316 316 316 316 316 316 316 316 315 315 315 315 314 314 314 314 313 313 312 312 312 312 312 312 312 312 312 312 310 309 307
297 298 298 298 298 299 299 300 301 300 301 302 304 304 305 307 306 302 301 304 306 306 307 304 301 301 301 301 303 304 303 301 300 301 301 301 302 303 303 304 306 305 306 308 311 311 311 313 314 315 316 316 316 316 315 315 315 315 316 316 316 316 316 315 316 315 315 316 315 315 315 315 314 313 313 312 312 312 312 312 312 312 311 310 308 305 303 301
295 296 297 297 297 298 298 299 300 299 300 300 300 301 301 302 300 300 301 304 304 304 302 300 299 300 300 300 302 302 300 299 299 300 300 301 301 302 302 303 304 305 306 308 309 310 310 312 313 314 316 316 316 316 315 315 315 316 316 316 315 315 315 315 315 315 315 315 315 316 316 313 309 309 309 309 309 310 310 310 309 308 306 303 301 299 299 299
Wind_Speed
12 12 12 12 12 12 12 12 12 12 12 11 11 11 11 11 11 12 12 13 13 12 12 12 12 12 11 11 10 10 10 10 10 9 9 12 12 9 7 5 4 5 6 4 6 6 4 3 5 3 1 0 0 1 1 1 2 3 3 2 3 3 4 5 6 5 3 4 5 4 4 7 5 4 1 1 1 2 3 3 4 2 3 2 1 3 16 31
12 12 12 12 12 12 12 12 12 12 11 11 11 11 11 11 11 11 11 12 13 13 13 13 13 13 12 11 10 10 10 10 10 10 11 12 12 12 9 7 6 6 7 7 8 8 6 3 4 4 3 0 1 1 0 1 2 2 3 2 4 6 5 5 5 4 2 4 5 5 4 6 6 4 1 2 5 3 4 6 3 5 4 3 4 13 24 31
12 12 12 12 12 13 13 13 12 12 12 11 11 11 11 11 10 10 10 11 12 12 13 13 14 14 13 11 9 9 9 7 6 7 6 6 5 10 12 10 8 7 8 7 8 9 7 4 5 6 3 1 2 0 1 1 1 2 3 2 7 7 6 6 6 6 5 4 4 6 2 4 6 3 2 4 6 5 7 8 4 8 10 4 4 12 22 27
11 11 12 12 13 13 13 13 13 13 13 12 12 11 11 11 10 10 10 10 11 11 12 13 14 14 12 9 8 8 8 4 2 3 3 7 5 2 10 12 11 9 8 7 7 8 6 4 5 5 3 2 3 1 2 3 2 2 4 5 7 4 4 8 7 7 7 4 3 4 1 3 6 3 3 4 4 8 9 9 9 12 13 9 7 10 18 21
11 11 11 12 12 13 13 13 14 13 13 13 13 12 12 11 10 10 10 9 10 10 11 12 13 13 11 8 7 7 6 5 2 2 3 7 7 2 7 11 12 11 9 9 8 7 6 4 4 3 2 2 2 2 3 6 3 1 5 8 7 3 4 9 6 6 5 2 3 4 4 6 3 2 5 7 7 11 7 8 12 13 11 11 12 13 15 16
10 11 11 12 12 12 13 13 13 14 14 14 13 13 12 12 11 11 10 9 9 9 10 11 12 12 9 7 5 4 2 1 4 4 6 8 6 3 5 10 11 10 10 10 9 6 5 3 3 2 1 1 3 3 5 4 4 3 6 5 7 6 7 9 5 4 3 2 6 5 4 2 2 5 6 9 15 15 6 7 11 13 12 14 15 14 14 14
11 11 11 11 12 12 12 12 13 13 14 14 14 13 13 13 13 12 11 10 9 9 9 9 11 10 7 5 4 3 3 4 9 8 10 9 5 4 5 9 10 10 10 11 8 5 4 4 2 4 3 2 3 6 5 2 4 5 6 4 6 8 9 10 7 6 4 6 8 3 3 3 6 8 3 8 19 16 8 6 8 9 9 13 13 14 16 17
11 11 11 11 11 12 12 12 12 13 14 14 14 14 13 13 13 13 13 11 10 10 9 9 9 8 6 3 2 3 1 7 12 9 9 7 5 4 6 9 10 11 11 12 11 6 5 5 5 3 2 4 4 4 4 2 2 6 7 5 5 5 8 9 7 8 7 7 5 2 6 8 9 5 6 18 22 11 8 8 8 5 6 11 13 16 16 16
12 12 12 12 12 12 12 12 13 13 14 14 15 14 14 14 13 14 14 13 11 10 10 8 8 5 4 1 4 3 4 6 7 7 7 6 6 6 8 10 11 13 11 11 11 8 5 5 6 5 4 4 4 4 3 1 4 6 7 5 5 7 8 7 7 9 7 5 3 3 12 11 7 2 9 24 20 9 9 10 10 7 7 10 12 14 16 16
14 14 14 14 14 14 14 14 15 15 16 16 15 15 15 14 14 14 14 14 13 11 10 8 7 4 3 2 3 3 7 5 6 7 7 7 8 9 11 11 12 14 11 8 10 10 7 7 6 4 4 2 3 4 3 4 4 4 4 5 7 9 9 5 7 10 5 5 6 7 15 12 3 1 10 20 8 2 8 8 9 8 9 11 10 12 14 15
14 15 15 15 15 15 16 16 17 18 18 18 17 16 16 15 14 15 15 16 15 13 11 8 6 5 4 3 4 5 7 7 8 8 8 9 11 11 12 13 13 14 13 7 10 13 9 8 6 5 1 1 2 3 3 5 2 2 2 7 10 7 10 9 9 9 3 4 7 9 12 11 1 3 14 21 5 5 4 7 7 8 10 11 11 11 10 12
13 14 15 15 15 16 16 17 18 19 20 20 19 18 17 17 15 15 15 16 16 15 12 9 7 6 3 2 6 12 12 12 13 13 12 11 12 12 11 13 14 14 14 9 8 11 10 8 7 5 4 1 1 2 3 4 1 2 1 6 12 7 11 15 9 7 4 3 5 8 5 9 5 10 20 22 9 1 4 8 9 9 10 9 10 10 9 12
13 14 15 16 16 16 17 17 18 20 21 21 21 20 18 18 17 16 16 16 16 15 13 10 8 7 4 2 8 13 17 18 17 15 15 13 12 12 12 14 14 14 14 10 7 5 5 7 9 6 4 3 3 3 1 1 2 4 2 1 9 7 10 13 2 2 4 4 6 8 3 9 10 16 20 16 9 5 8 11 11 9 9 9 9 8 10 12
12 13 14 16 17 17 18 19 20 22 22 23 22 20 19 18 16 16 16 17 16 14 13 10 7 6 4 5 8 9 14 16 16 18 18 16 14 12 13 14 14 14 13 11 7 4 3 5 6 3 1 3 3 4 3 5 3 3 2 1 3 3 9 9 3 4 3 4 7 8 3 10 13 17 16 10 7 6 8 14 12 10 9 8 8 8 10 11
12 13 14 16 17 18 19 21 22 23 25 25 23 21 20 17 16 16 15 16 15 12 9 6 7 7 1 7 9 8 11 12 17 23 21 18 16 11 11 14 14 12 11 9 7 5 5 4 3 2 2 1 1 3 4 4 3 1 2 4 2 4 8 12 4 7 7 5 4 7 4 9 15 17 14 7 5 7 9 13 13 11 9 8 9 9 11 11
12 13 14 15 17 18 20 21 23 25 27 26 25 23 20 18 16 15 15 14 12 8 4 4 9 7 1 5 5 6 10 12 16 20 19 19 17 11 9 11 9 7 7 6 5 4 6 4 1 2 1 2 1 2 3 4 5 2 3 6 5 5 4 9 9 6 10 4 2 7 6 7 11 13 12 6 5 8 9 12 13 12 11 10 9 9 10 10
11 13 14 15 17 18 20 22 24 26 27 26 26 24 21 18 15 13 10 7 4 5 7 5 7 5 2 3 3 5 9 14 15 13 16 19 16 12 8 6 5 6 5 3 4 4 3 2 1 1 1 2 2 5 2 3 7 4 2 5 6 7 4 4 9 6 6 6 6 9 9 11 15 12 10 7 5 7 7 11 12 11 11 10 10 9 9 10
11 13 13 15 16 18 20 22 24 25 25 25 25 23 19 11 6 4 2 7 8 7 5 2 4 3 4 5 5 5 4 9 11 10 15 17 14 13 9 5 5 7 5 2 2 3 1 1 2 1 2 3 3 5 4 8 9 6 5 5 4 6 6 6 10 5 2 5 7 8 10 15 19 16 13 12 9 6 9 11 10 10 11 11 10 9 9 10
12 13 14 16 17 19 20 21 24 25 23 26 26 18 9 4 5 5 7 9 8 5 3 3 5 3 4 6 7 6 3 5 7 9 14 14 12 12 8 5 6 7 5 1 1 3 3 2 4 2 4 9 9 9 12 14 12 10 9 6 6 7 6 9 13 8 3 6 8 9 13 15 17 18 16 16 14 12 13 11 9 10 12 12 11 9 10 12
12 14 14 16 17 19 21 21 24 23 22 28 27 14 3 4 4 3 3 0 4 4 2 5 8 4 4 3 3 5 5 5 6 7 13 14 12 10 5 2 5 3 3 5 4 3 4 4 3 7 12 15 13 12 16 16 10 8 7 6 8 9 9 11 15 10 4 5 9 12 17 17 17 19 18 15 13 14 15 13 12 13 13 13 13 13 14 14
13 14 15 16 17 20 20 21 24 20 20 24 21 8 2 2 3 3 4 5 10 11 7 8 11 10 9 6 4 6 3 4 6 5 12 15 13 10 4 3 5 3 4 5 2 0 3 6 9 15 18 14 10 11 13 12 8 8 7 8 9 8 12 14 13 12 4 5 9 11 16 19 17 18 17 12 12 15 17 15 16 17 15 13 13 17 17 15
13 14 15 16 17 19 19 21 22 17 18 19 14 7 3 1 1 2 1 4 10 10 9 10 11 11 15 17 16 8 1 5 8 4 12 14 10 8 4 5 7 5 5 4 1 2 3 6 14 18 13 7 6 6 7 8 8 8 6 7 9 7 11 12 10 13 5 4 8 11 14 16 14 16 17 14 14 16 17 16 18 18 14 13 14 16 17 16
13 14 15 15 17 18 18 21 18 13 17 14 10 7 3 4 2 1 1 2 8 6 6 9 9 8 12 19 19 12 7 11 9 6 16 16 6 5 4 6 7 3 6 7 8 7 5 7 15 15 7 6 9 5 4 6 6 7 7 6 8 8 9 8 6 8 4 3 7 9 12 12 11 13 14 16 18 16 15 16 17 16 14 16 17 15 15 17
14 15 15 15 17 16 17 19 13 12 16 8 6 6 7 7 2 1 0 2 5 6 7 10 8 6 11 12 12 15 11 8 6 6 16 17 5 2 4 6 6 3 6 12 14 13 11 7 8 9 7 9 11 7 5 6 7 9 9 8 11 12 12 11 6 6 6 5 5 7 12 11 10 14 14 14 16 15 14 15 16 16 16 16 16 16 16 18
14 15 15 15 16 15 17 15 8 13 14 2 3 8 9 8 3 1 1 2 4 6 6 7 5 6 11 6 8 13 5 4 6 5 15 18 9 4 3 4 4 6 11 12 11 12 12 6 5 7 8 9 10 8 7 8 9 9 8 13 18 16 13 13 10 8 7 6 4 2 9 9 8 13 14 11 10 12 11 13 16 17 17 15 15 17 18 18
14 14 13 15 16 15 13 7 7 14 9 1 4 9 8 7 3 1 1 2 4 5 2 2 3 4 6 3 6 7 1 5 5 4 13 17 13 6 2 3 2 7 9 7 5 5 7 6 7 8 9 9 8 7 8 11 9 9 6 13 17 13 10 12 10 5 3 6 4 2 2 9 6 7 10 10 9 12 10 11 15 15 15 14 14 16 16 17
14 14 13 14 14 13 8 4 10 12 4 2 8 9 7 7 3 2 1 3 5 3 2 1 0 1 3 2 4 6 2 5 2 4 5 7 6 2 3 6 3 3 4 3 3 3 4 6 7 9 9 7 7 8 11 11 8 8 4 8 11 9 9 8 6 5 4 4 4 2 4 8 14 7 10 12 10 10 11 13 14 14 15 15 14 15 16 16
14 15 16 15 13 11 7 6 10 7 3 5 8 7 6 6 2 1 3 3 4 1 2 2 0 1 1 2 1 4 2 2 3 1 3 2 1 1 4 9 5 4 3 5 6 5 4 6 9 10 7 6 9 10 8 11 8 7 3 6 6 6 5 4 4 5 2 4 4 4 5 3 15 8 8 10 9 9 12 16 17 16 15 14 14 16 17 15
13 14 17 16 12 9 8 8 8 6 6 8 7 7 6 3 1 4 3 3 3 1 1 1 0 2 2 1 2 0 2 3 2 3 4 2 0 2 4 6 5 4 4 5 8 6 2 5 8 9 7 8 10 6 7 13 9 4 6 5 4 3 3 5 2 1 2 5 6 6 6 3 14 9 5 4 5 9 12 14 16 15 13 12 13 16 16 13
14 12 15 15 12 8 7 10 11 7 6 7 8 8 4 1 1 3 3 5 1 1 1 1 1 1 3 3 2 4 2 2 1 2 3 1 2 4 1 2 4 3 5 3 7 8 2 0 3 5 5 6 4 2 3 8 6 3 6 5 6 5 5 4 1 4 2 8 6 10 12 7 9 6 5 4 5 8 9 9 11 11 11 12 13 13 13 13
15 12 13 15 15 12 6 7 9 6 4 5 7 7 3 0 3 2 7 3 1 2 0 1 1 2 3 3 2 3 1 3 1 2 0 1 2 4 1 1 2 2 3 5 7 7 2 1 2 3 2 4 5 3 2 2 3 4 4 4 3 4 4 4 4 4 1 9 6 12 13 11 10 6 2 5 6 5 7 8 10 12 12 13 12 11 12 14
13 12 13 16 19 17 11 6 6 3 4 2 3 3 1 1 1 6 6 2 2 3 1 0 1 2 2 2 1 3 2 2 1 3 3 2 2 2 3 4 4 1 4 5 5 5 4 5 5 1 1 5 5 2 3 5 3 4 4 4 1 4 3 3 4 1 4 8 5 8 8 8 12 7 3 9 10 7 9 10 11 12 12 12 12 12 11 12
11 11 12 16 19 21 19 15 10 6 5 3 3 3 3 1 5 5 3 1 2 2 2 1 0 3 3 2 3 4 3 2 3 3 2 2 2 3 4 4 6 2 4 4 2 3 4 5 3 2 3 5 8 6 3 2 4 6 5 6 5 3 2 3 4 3 5 7 4 4 6 5 8 4 8 15 15 12 10 10 12 12 11 12 12 11 10 11
10 10 11 14 18 21 22 20 16 11 8 6 4 4 3 5 6 0 2 4 4 3 1 1 3 1 3 2 5 3 2 4 4 4 2 2 1 3 4 6 6 3 1 2 2 1 4 8 5 8 4 6 12 12 8 4 4 7 5 5 6 5 4 4 5 6 7 5 4 1 5 4 5 3 9 12 10 8 7 10 11 11 11 10 10 9 9 12
11 11 11 12 16 20 23 22 18 15 12 8 4 3 4 8 6 1 3 4 3 4 4 3 3 0 3 4 5 4 5 6 2 4 3 3 3 4 3 5 8 6 3 3 3 3 4 10 7 6 3 9 13 10 6 7 2 4 4 4 4 5 6 4 7 6 2 3 4 3 5 6 4 6 8 8 8 8 8 8 7 9 11 9 10 11 11 13
12 12 11 12 16 19 22 24 21 19 14 7 3 4 8 9 4 3 3 2 2 2 3 5 1 2 4 3 3 3 4 4 1 2 3 3 3 5 4 4 8 11 8 5 3 3 5 8 3 3 0 6 9 5 4 5 3 2 4 4 3 3 6 5 7 2 1 4 6 3 6 7 6 9 9 8 11 11 9 7 6 9 12 12 12 12 12 12
11 11 9 12 17 17 19 24 24 21 12 5 5 8 7 6 5 5 3 2 2 3 2 4 3 4 4 2 3 4 1 2 2 3 2 2 3 4 5 4 6 13 15 10 5 5 7 8 3 5 4 4 2 1 1 1 3 6 4 6 2 2 2 3 2 2 2 8 7 5 11 10 6 9 5 1 4 8 8 9 10 12 13 12 12 12 12 12
9 8 9 15 21 18 18 25 26 18 7 4 9 11 6 4 4 5 4 2 2 1 1 5 4 3 4 4 5 4 3 3 2 3 2 2 3 4 5 4 4 10 15 12 6 4 4 7 6 3 3 1 3 2 2 4 1 4 3 3 3 1 3 3 3 3 6 9 7 10 16 11 8 10 6 4 7 10 11 10 10 11 11 9 11 13 13 11
7 4 6 11 18 20 23 28 24 12 4 5 10 9 5 5 4 5 5 4 2 2 4 7 5 4 6 7 7 4 4 5 3 3 3 3 4 4 4 2 1 2 6 5 3 4 1 4 6 2 1 2 3 1 4 2 2 2 1 1 1 2 4 3 3 3 5 9 8 11 14 10 9 7 6 8 10 10 11 8 7 10 11 10 11 11 11 9
3 3 4 4 9 20 27 25 14 5 3 6 8 8 3 3 4 4 5 6 4 3 5 7 7 7 8 9 9 5 4 6 5 4 4 4 5 3 1 1 1 2 2 4 3 4 3 3 6 2 3 2 1 3 5 5 3 2 2 3 3 2 2 1 2 2 4 8 8 9 10 10 8 3 6 9 8 9 9 6 6 8 8 9 9 9 9 7
3 3 4 4 9 21 24 14 5 3 4 5 8 9 6 4 3 3 5 6 5 3 3 4 6 7 8 9 9 6 4 4 5 5 4 4 5 4 1 4 5 2 3 3 1 2 1 3 5 4 4 4 3 3 6 7 7 6 6 7 7 7 4 4 6 5 4 6 7 9 9 10 8 2 3 6 4 5 6 4 6 7 7 8 8 9 10 8
4 4 2 3 14 26 19 5 3 4 4 5 5 5 4 3 4 5 4 4 5 4 2 2 5 5 5 6 6 5 3 3 5 5 4 5 7 6 3 3 4 2 1 1 3 3 3 1 4 6 6 7 12 9 5 8 7 5 4 5 6 6 5 7 10 7 4 5 6 8 9 9 8 4 3 5 4 5 5 5 5 8 8 7 7 9 9 8
3 4 3 3 17 24 11 3 6 4 4 3 2 2 1 1 4 4 4 5 5 4 3 3 6 7 7 7 7 5 4 5 7 7 6 6 7 10 11 11 10 7 4 2 2 2 2 2 2 6 5 6 12 14 8 3 3 3 4 5 6 6 7 9 8 4 5 6 5 9 10 7 7 8 7 7 6 6 6 5 5 7 7 6 7 8 8 9
2 3 3 4 14 15 4 4 7 6 7 4 4 5 3 2 4 7 7 6 5 4 5 5 6 7 7 7 7 7 5 5 8 10 9 6 7 11 15 15 14 10 6 5 4 4 3 2 2 4 6 6 6 8 8 2 3 3 4 6 9 9 8 7 4 1 5 9 10 12 11 6 7 11 11 12 12 9 8 6 5 7 7 6 7 7 7 8
2 3 3 5 13 10 3 5 5 5 6 7 8 9 7 5 5 9 10 7 5 5 4 4 4 4 5 6 6 8 9 8 8 7 8 6 5 8 12 15 15 11 9 9 7 5 4 5 5 5 9 9 8 8 6 3 2 3 3 7 11 14 14 9 5 5 8 11 13 12 11 9 10 14 18 22 21 17 14 11 8 8 8 7 7 8 8 8
2 3 2 3 7 7 4 5 5 4 4 6 7 8 11 11 6 5 6 6 7 7 5 5 4 3 4 6 8 10 11 11 9 6 5 6 4 4 7 11 12 12 13 11 8 5 1 4 8 12 13 12 13 13 7 3 3 4 5 9 11 11 13 10 7 9 10 10 12 12 13 14 14 16 21 25 24 21 19 16 13 12 10 8 7 8 9 10
3 3 2 1 3 5 6 5 5 4 2 3 4 4 9 13 8 4 5 4 6 7 5 6 8 9 9 10 11 11 11 12 12 11 10 9 6 6 6 6 8 11 12 9 6 6 1 4 11 16 18 17 18 19 14 11 12 12 11 12 11 10 10 9 10 12 10 10 12 13 15 17 16 16 20 23 24 23 20 17 15 15 13 10 9 9 10 12
3 2 1 2 2 3 4 2 0 1 2 2 2 3 5 8 8 5 4 3 3 4 3 5 9 12 10 8 7 8 9 11 11 10 8 6 6 8 7 5 6 8 6 5 5 6 4 8 12 15 19 19 18 20 20 18 18 18 17 18 18 17 16 15 16 16 14 13 14 14 16 18 16 15 18 21 23 24 22 19 17 16 16 14 14 14 13 14
2 1 2 2 1 2 2 3 3 3 3 3 3 2 3 5 6 3 2 3 3 2 5 5 3 3 4 5 3 4 5 4 5 4 3 6 8 6 6 7 6 3 1 3 4 4 4 7 12 16 18 19 19 21 21 21 20 19 20 22 23 23 23 22 22 21 20 20 19 19 21 21 17 16 20 22 23 22 21 22 22 21 20 19 19 19 17 15
1 2 2 3 3 2 1 1 2 3 3 4 5 4 2 4 5 2 2 3 3 3 3 2 6 7 6 4 2 3 3 2 1 4 5 8 8 4 4 5 5 8 7 4 3 3 5 7 11 14 14 15 19 20 20 21 22 22 24 24 24 25 25 24 22 20 20 22 24 24 24 20 17 20 23 23 22 20 19 21 23 23 24 24 20 15 11 11
3 3 2 2 4 3 1 1 1 2 4 3 3 3 3 5 3 4 4 5 4 2 1 4 7 8 6 7 6 4 2 1 3 6 5 5 7 5 4 5 6 10 9 5 3 3 4 4 6 9 8 9 13 18 20 21 22 24 24 24 26 25 22 21 20 19 19 20 22 22 19 16 17 21 22 20 19 19 19 22 23 22 21 17 13 12 13 13
3 4 2 1 4 4 2 1 1 2 3 1 2 2 4 3 3 5 4 3 3 2 4 6 7 7 6 9 9 4 3 5 8 8 7 8 9 9 9 9 9 9 7 6 5 3 3 3 3 6 7 7 11 16 18 17 16 16 17 23 27 26 23 20 18 18 20 19 18 17 15 11 10 11 12 12 13 14 15 15 14 12 12 12 12 13 12 12
Wind_Direction
9 6 4 4 3 4 4 4 5 6 8 8 8 8 7 6 3 2 358 357 359 357 357 352 348 344 337 332 327 323 320 309 296 275 250 270 272 254 251 242 215 202 204 202 185 173 150 170 201 181 136 40 320 257 217 146 94 65 101 163 241 205 211 197 197 207 177 269 266 267 229 186 252 279 254 331 322 279 260 268 264 281 34 33 304 147 150 157
4 1 359 358 358 359 359 359 359 358 0 0 2 1 1 2 358 357 354 352 351 351 353 348 346 341 337 335 327 326 321 309 297 275 271 287 276 249 237 228 220 207 195 195 199 181 147 178 201 134 88 92 277 321 95 258 126 131 135 178 233 206 218 204 205 229 200 263 258 263 246 188 224 239 102 249 264 273 244 265 277 264 281 34 89 136 149 156
359 358 355 354 353 355 354 354 353 352 353 354 354 354 354 355 354 353 350 348 345 347 346 344 344 340 338 334 333 335 322 315 304 279 298 344 295 242 231 228 227 218 211 208 208 191 164 172 180 140 99 252 257 84 83 277 198 184 149 217 244 216 237 250 240 248 236 239 251 273 255 187 236 224 135 224 260 260 224 237 217 238 243 195 135 147 154 159
357 355 351 350 350 350 350 350 348 348 347 347 348 348 347 346 347 347 345 344 341 341 341 341 340 338 339 334 338 333 328 350 304 272 10 23 19 243 223 225 223 218 218 214 203 192 180 163 163 143 119 241 289 60 163 228 211 185 163 211 240 204 247 259 246 246 237 218 211 246 300 269 254 195 191 193 263 268 231 224 209 222 229 186 169 172 166 168
356 352 349 347 347 348 348 347 345 344 342 342 343 343 343 340 339 339 340 338 336 336 337 338 335 337 336 330 339 331 351 28 275 239 5 357 2 330 217 217 218 215 209 205 199 186 190 161 119 96 98 221 285 61 226 224 165 175 215 223 239 204 252 262 252 243 225 216 250 260 281 271 253 186 217 189 229 256 222 213 214 220 220 180 177 180 174 178
352 349 347 344 346 347 345 345 342 341 339 338 338 339 339 335 334 333 333 331 331 331 332 334 332 334 329 326 340 335 21 333 259 256 298 323 333 292 213 211 213 214 207 203 201 185 182 122 94 130 126 223 208 194 240 233 157 228 253 239 246 225 242 267 269 256 230 258 266 261 263 268 324 277 235 199 229 245 218 191 204 220 216 180 170 171 177 188
350 347 346 344 346 345 344 342 338 337 336 335 334 334 333 330 329 327 328 327 323 323 325 329 329 329 323 325 332 360 88 253 275 285 292 306 302 263 209 210 208 210 207 200 197 179 152 113 147 176 138 272 223 207 243 265 174 220 258 259 255 232 233 257 269 279 277 249 248 263 305 270 258 274 300 240 242 243 242 217 203 220 202 165 161 174 187 192
350 348 347 347 348 347 344 340 337 336 333 332 330 328 326 324 322 321 322 321 318 316 317 321 325 326 316 315 346 352 3 255 278 292 292 291 270 243 208 208 206 209 205 206 205 181 155 149 186 173 149 253 210 207 255 318 199 214 243 257 266 249 243 260 272 276 273 253 243 274 276 251 236 269 315 268 262 252 233 234 222 198 152 160 176 187 192 197
353 351 352 353 353 352 347 343 340 336 333 331 327 325 321 317 314 313 312 311 313 308 308 314 314 312 291 287 78 343 273 253 278 289 288 272 248 231 214 209 207 209 206 217 211 182 175 186 210 195 196 231 199 222 235 239 244 217 228 258 274 277 275 280 280 269 267 255 194 230 267 260 241 277 284 267 268 258 216 223 223 188 171 186 191 193 195 202
354 354 356 357 357 355 351 348 343 339 336 332 328 326 321 316 310 305 303 302 303 299 299 302 297 287 248 192 96 281 270 279 289 281 280 259 240 226 216 216 212 210 207 213 204 185 183 195 199 166 175 214 206 230 186 185 229 214 226 270 263 275 284 264 263 269 277 265 203 217 266 274 267 188 267 269 273 179 203 225 228 203 213 211 200 204 201 205
355 356 358 359 359 356 354 350 346 342 337 332 329 327 322 318 311 304 302 297 295 293 289 286 279 256 216 167 167 243 271 285 283 281 276 255 238 230 223 222 218 215 211 207 207 204 207 205 162 114 189 227 217 257 234 205 215 236 263 303 281 294 297 263 258 267 266 271 213 192 260 284 320 177 247 262 267 104 199 242 243 220 230 225 212 214 205 213
355 356 359 1 360 358 356 351 346 341 336 332 328 326 324 319 314 307 302 297 293 290 282 274 260 225 191 162 218 243 262 270 273 276 269 252 238 234 228 225 224 225 221 219 222 218 222 217 159 148 226 199 275 285 246 217 127 282 11 319 292 329 307 274 265 251 196 233 188 145 273 284 234 223 241 254 261 307 275 264 254 238 239 234 224 220 213 222
353 356 358 358 359 359 356 351 347 341 335 331 326 325 321 316 313 307 301 297 293 290 278 269 249 208 175 244 243 247 258 262 263 263 256 245 236 231 223 222 226 229 229 230 232 217 215 211 180 184 212 166 247 258 218 359 19 296 21 309 291 337 301 274 253 212 199 207 165 130 271 270 246 244 246 256 265 273 277 269 258 247 245 240 232 227 226 226
351 353 353 353 355 356 354 352 348 343 337 331 328 324 318 314 309 300 296 293 294 293 277 264 233 184 167 256 263 261 258 254 250 247 245 237 226 225 223 220 223 226 231 236 236 232 207 194 173 170 223 178 245 295 335 354 357 299 307 251 288 301 274 280 96 128 227 224 163 142 227 258 262 262 255 254 246 228 250 265 263 253 246 244 240 232 236 231
348 349 350 349 350 350 350 350 348 343 337 332 329 325 318 313 302 292 288 286 291 289 270 236 187 152 108 272 270 271 253 243 244 243 242 234 219 217 222 217 221 226 230 234 234 234 205 172 141 153 264 262 318 323 324 336 345 345 254 269 280 208 264 296 293 174 214 253 150 153 220 255 261 266 265 253 213 202 228 255 264 263 256 247 245 236 240 242
344 344 345 345 345 346 346 347 346 342 337 333 329 325 320 312 296 285 281 280 283 267 218 173 176 156 29 273 271 272 240 230 244 245 238 231 222 217 211 205 208 204 205 214 204 195 178 153 132 160 196 290 196 124 28 344 319 325 208 245 257 226 257 305 296 216 202 214 172 203 225 257 260 260 267 268 213 201 224 253 259 264 264 252 248 240 239 247
338 338 339 341 341 341 344 346 344 342 339 336 331 325 319 309 291 284 279 273 273 197 157 144 165 162 266 266 278 273 237 230 240 238 225 220 218 213 192 170 169 162 150 148 163 157 149 144 154 118 30 277 170 111 62 280 267 277 217 232 250 240 228 274 292 277 186 178 212 229 228 245 256 256 265 271 216 184 212 249 256 258 262 257 254 248 244 244
330 331 333 336 337 338 343 345 343 343 340 337 337 329 320 315 296 294 163 136 102 110 139 112 126 151 262 242 245 257 234 228 228 218 211 204 203 206 186 153 134 128 110 64 137 140 97 22 99 100 304 256 178 135 188 230 233 231 217 229 251 243 232 246 268 272 161 207 221 232 239 244 257 263 266 267 252 232 234 243 254 260 261 260 258 254 249 244
324 327 328 331 332 335 340 343 343 343 338 339 345 337 323 24 74 90 117 128 108 109 176 220 163 160 251 234 236 252 241 201 198 199 193 182 185 191 176 143 120 117 120 125 230 173 143 59 73 129 228 235 213 184 206 225 224 222 226 236 249 249 243 244 255 250 205 252 238 233 248 248 256 261 259 262 262 260 257 253 255 258 260 261 258 255 250 247
321 322 323 327 328 331 337 341 342 342 340 343 349 347 351 43 39 50 40 243 221 221 225 211 201 220 272 249 217 225 225 194 194 194 180 175 168 165 168 102 92 102 150 159 199 204 148 148 159 193 216 226 219 202 216 231 234 239 252 261 254 255 262 253 262 266 196 230 243 231 249 254 254 259 255 256 261 261 260 259 256 251 252 255 256 256 252 246
317 317 319 322 323 329 335 338 341 342 342 347 357 12 71 26 336 306 325 290 263 265 270 241 224 244 260 255 221 200 197 214 221 194 176 176 155 151 196 143 133 206 185 154 176 182 149 179 204 215 220 226 223 212 223 237 246 251 251 264 263 252 263 259 264 275 217 202 252 240 253 258 251 258 259 252 252 257 256 254 255 253 249 251 252 254 254 251
310 309 314 317 321 328 334 338 341 343 343 356 27 64 96 17 327 279 295 288 282 265 253 253 242 252 258 258 252 229 222 251 243 201 173 175 162 174 203 154 173 201 152 140 228 233 194 212 225 225 227 246 249 219 221 237 238 243 242 258 265 254 271 270 255 267 243 182 257 253 255 259 251 254 259 255 247 249 252 249 253 254 251 251 247 249 253 255
299 302 310 313 320 327 333 337 338 345 350 8 53 74 52 4 350 201 151 268 291 268 231 242 232 232 245 254 248 219 224 236 236 221 179 172 176 192 172 167 188 160 135 179 209 218 218 228 232 230 227 243 253 235 207 248 242 225 227 246 261 251 264 268 246 268 262 198 262 268 264 264 257 258 256 254 252 251 254 252 254 256 250 249 247 248 252 252
288 295 305 308 315 322 332 335 335 349 353 16 67 41 21 7 10 156 219 256 283 274 241 225 212 212 227 245 224 198 220 225 216 227 179 167 154 155 179 177 167 151 188 204 213 227 239 236 222 214 204 216 241 245 215 252 257 225 213 225 249 247 243 252 273 313 299 264 276 283 284 273 236 243 250 248 251 253 253 251 256 257 249 250 253 252 250 249
290 291 296 302 307 315 328 330 334 349 348 30 58 5 4 358 1 129 328 315 284 284 272 227 202 228 231 229 178 181 218 236 221 207 170 171 163 146 207 173 154 211 212 211 223 242 250 235 166 175 201 208 223 240 216 219 252 250 214 217 237 247 250 259 284 321 310 285 296 291 292 285 205 216 239 243 245 248 248 245 249 253 251 250 253 253 250 249
293 294 296 299 299 311 327 328 326 341 342 190 350 351 349 343 339 184 108 3 285 268 288 221 181 218 222 186 153 147 56 271 245 154 162 182 182 159 195 175 199 231 202 200 229 247 247 215 171 179 201 202 205 243 226 204 241 272 226 214 233 245 253 258 270 295 269 263 292 94 271 286 264 213 222 231 237 243 248 246 246 249 251 247 245 250 251 251
285 289 294 297 298 306 315 306 316 330 337 295 339 348 343 340 318 226 48 353 285 218 154 233 150 144 179 180 163 138 179 269 5 77 149 186 198 168 203 201 211 236 166 139 265 242 206 194 192 197 196 187 192 238 229 188 212 266 224 195 214 227 237 232 231 240 238 277 296 140 142 278 283 250 194 206 218 235 248 249 249 246 244 245 246 249 250 251
277 281 284 285 291 293 276 279 304 311 294 315 337 341 339 338 296 127 54 307 276 138 133 252 308 74 34 341 233 143 195 294 61 331 343 57 193 136 224 223 193 206 164 147 238 244 168 185 201 192 184 191 205 225 201 157 196 251 161 157 177 193 210 166 176 225 284 337 290 199 137 259 279 262 171 194 208 222 239 239 244 244 241 243 247 250 250 251
274 277 280 274 271 273 257 257 273 278 295 316 332 326 326 313 282 74 76 256 278 42 64 327 312 301 16 59 247 208 10 4 98 275 338 58 267 92 208 228 163 216 246 181 233 256 180 203 194 168 176 214 219 222 165 159 203 228 116 104 79 83 76 94 127 129 41 306 259 196 157 217 279 276 145 164 207 219 232 233 240 245 246 248 248 254 258 260
268 269 278 265 242 242 237 237 251 263 292 312 323 319 312 251 70 70 245 247 320 309 251 38 276 302 65 112 279 311 311 311 5 335 4 84 338 24 200 235 114 198 279 293 262 254 222 212 173 169 192 203 183 129 155 173 188 133 100 60 34 23 28 57 45 69 36 281 238 184 181 186 272 286 133 166 225 219 222 229 247 254 257 257 252 257 263 263
272 264 266 254 236 234 219 232 260 258 251 298 324 320 302 17 80 149 240 245 39 277 243 18 307 55 77 134 286 307 252 296 352 117 242 163 5 21 32 290 71 69 316 302 280 267 256 220 216 225 184 126 106 96 16 28 114 111 102 73 31 332 8 28 352 56 201 265 221 185 185 184 234 263 159 241 268 244 216 219 237 243 247 254 255 257 258 259
286 273 258 251 244 236 220 237 278 232 207 270 352 338 331 343 212 214 243 346 6 253 162 204 253 97 109 134 251 249 189 291 290 151 179 170 168 191 204 210 165 55 298 256 275 302 276 223 206 230 181 144 125 110 355 358 75 109 109 114 101 300 341 354 313 108 218 257 227 181 177 206 242 252 246 267 276 250 218 216 227 233 240 248 254 253 252 263
292 285 262 252 245 233 228 240 253 223 196 151 82 47 71 218 244 219 224 270 237 225 127 132 142 149 146 124 251 229 168 231 212 170 192 148 169 242 259 228 164 168 257 230 306 330 294 274 171 148 268 183 154 176 237 270 175 160 154 153 169 216 245 257 264 260 257 266 258 172 167 239 279 268 221 237 248 240 218 215 225 226 233 239 247 252 257 272
286 285 273 260 247 239 236 236 234 216 183 139 102 68 104 225 252 150 168 231 265 323 357 61 47 116 167 209 239 200 182 242 183 156 188 123 142 255 259 237 192 170 223 222 294 195 255 287 195 167 229 183 179 204 203 148 162 187 159 144 178 190 179 202 231 251 267 283 296 203 172 227 288 267 217 223 250 261 228 224 230 230 237 245 261 271 269 272
284 279 276 263 244 239 236 230 224 206 174 132 97 120 194 234 251 237 216 233 287 310 299 325 37 319 260 262 254 211 214 243 151 135 178 164 192 213 205 213 195 174 148 198 252 166 221 269 225 173 165 165 183 210 170 116 144 222 124 121 215 204 175 214 249 238 236 307 285 228 212 240 253 255 244 240 269 272 243 243 252 251 253 256 265 265 258 262
285 283 273 247 235 236 230 224 214 196 173 130 117 199 223 236 222 191 210 206 204 209 310 320 309 225 270 270 269 264 221 230 154 144 204 200 216 213 210 222 194 184 183 193 219 201 239 269 222 142 212 182 186 195 154 155 201 177 130 180 223 156 157 221 270 280 93 266 264 217 236 274 301 279 255 225 239 250 256 270 261 249 251 248 251 253 254 260
292 285 262 232 232 232 225 219 204 187 170 140 195 218 229 232 206 193 198 176 188 141 55 298 242 210 253 250 266 284 262 237 202 172 207 218 230 205 203 237 198 190 202 208 224 235 246 268 238 172 212 241 205 114 45 297 154 133 173 210 165 72 145 177 245 328 284 255 266 257 257 270 286 282 293 105 253 269 270 255 238 239 243 242 250 254 256 264
307 286 261 247 243 234 221 213 195 175 154 168 221 231 222 218 207 196 203 208 239 195 202 252 238 206 233 252 260 248 218 234 179 170 213 222 231 184 172 235 222 202 218 225 246 269 242 260 265 180 183 305 30 63 310 322 60 132 195 206 115 169 225 162 175 217 237 245 260 266 268 269 245 255 286 295 277 277 268 254 243 249 251 250 256 257 256 263
304 278 272 259 246 232 214 199 183 164 150 190 223 233 215 220 216 193 205 215 233 243 234 242 241 231 241 252 257 236 207 217 188 190 222 216 232 194 161 227 267 251 250 218 239 296 341 256 267 27 31 339 25 181 206 243 342 24 344 331 38 197 192 180 182 172 221 240 250 262 269 271 250 241 242 241 244 252 258 259 246 243 244 244 247 254 261 265
265 240 267 248 223 212 197 182 167 165 203 204 222 230 226 243 235 214 209 201 204 223 226 233 233 235 246 253 254 247 229 226 212 214 219 212 238 240 170 158 127 316 306 139 194 295 5 277 266 330 330 258 169 213 194 179 191 196 220 237 253 234 180 250 244 166 223 241 244 253 257 264 265 223 205 233 238 237 241 248 252 249 253 260 265 277 282 280
250 247 253 244 203 185 173 163 162 192 208 225 235 238 245 247 242 251 226 204 213 228 208 208 218 233 249 255 253 239 222 221 205 208 223 229 247 251 178 140 135 67 23 79 243 293 22 277 276 296 285 259 259 226 188 197 205 188 200 214 215 218 219 256 250 220 216 239 245 249 250 261 266 218 199 236 244 259 250 241 274 282 274 274 279 279 277 278
247 231 232 242 194 172 156 162 217 189 210 226 228 238 246 239 236 243 234 213 213 222 236 227 223 231 238 248 256 234 208 213 204 207 225 226 231 232 220 197 171 146 356 308 270 232 163 175 271 271 266 276 293 288 221 214 230 225 230 232 227 222 212 231 244 238 234 239 244 252 253 256 257 262 307 275 267 295 264 221 256 281 275 281 288 283 284 286
237 244 325 281 191 173 157 227 209 199 231 227 251 262 233 232 241 233 223 213 204 205 224 227 221 229 233 238 247 237 221 222 212 213 225 227 224 225 230 243 249 255 260 250 249 225 167 133 243 265 278 283 290 293 280 216 204 243 257 235 231 231 218 231 246 259 260 248 248 260 256 249 264 283 303 287 282 305 286 251 258 281 289 297 292 289 288 284
264 256 305 267 202 182 169 224 209 219 227 226 257 249 239 236 231 238 235 212 189 197 223 232 224 226 230 229 234 228 214 226 229 221 220 221 217 218 222 230 236 239 231 199 184 204 215 182 188 260 278 276 279 285 283 260 176 211 229 219 225 229 230 245 262 270 252 243 242 259 262 253 273 286 291 287 289 297 290 273 252 263 278 276 272 277 274 276
308 253 251 233 210 201 223 232 224 227 220 229 240 238 248 250 226 237 242 230 209 202 226 253 245 237 234 230 248 239 215 225 243 225 210 215 226 221 220 225 228 227 228 214 186 181 211 197 189 232 252 257 259 254 251 246 211 210 228 224 221 222 225 235 249 242 241 236 231 243 257 255 263 277 281 280 280 279 277 274 264 260 260 255 262 275 277 279
297 267 261 229 208 210 240 245 241 237 223 235 237 229 236 242 246 231 221 234 239 224 237 265 267 282 250 228 246 249 233 235 244 236 226 228 235 242 224 220 225 230 235 225 185 156 192 196 203 226 233 238 248 247 236 221 225 228 238 234 228 227 228 230 238 240 243 248 240 238 250 255 255 262 269 274 277 277 275 275 276 274 266 257 256 263 270 274
256 261 253 247 227 222 225 225 229 233 234 241 241 239 234 238 252 235 198 222 236 219 230 249 237 236 233 229 239 245 245 244 240 240 246 239 243 270 260 222 222 235 239 231 182 151 169 227 218 229 235 236 245 249 248 248 248 247 250 249 248 247 237 230 236 241 246 257 253 242 245 252 252 251 258 268 274 275 275 275 277 278 277 273 269 267 267 266
248 267 276 266 252 234 230 226 336 325 335 303 270 301 266 246 252 244 227 278 272 213 217 234 230 234 246 260 262 259 258 253 248 250 254 269 298 304 295 271 250 243 232 216 184 162 202 241 233 237 242 240 242 247 248 248 248 247 249 252 253 252 248 244 244 244 244 249 255 253 248 249 249 248 253 260 266 272 279 281 278 277 279 281 280 276 267 262
284 278 289 301 275 265 298 346 10 353 314 285 256 265 278 265 262 256 272 317 327 259 234 246 272 308 337 351 350 319 303 275 269 294 350 351 333 323 314 301 291 303 304 229 217 187 205 231 230 238 247 244 239 241 242 245 248 248 247 247 249 250 250 249 248 249 248 250 255 257 254 253 252 250 250 252 257 265 275 279 282 285 285 282 279 274 271 272
287 267 302 333 297 266 327 307 305 314 286 255 243 242 232 241 256 326 350 280 292 303 264 296 357 2 356 355 346 308 334 76 197 290 338 339 325 327 331 311 321 341 332 298 267 235 223 221 223 237 249 243 239 240 239 239 244 246 246 246 247 249 251 250 251 250 250 252 252 252 255 258 255 251 250 250 254 261 268 275 281 282 280 281 286 295 311 327
262 285 298 315 286 264 167 204 221 281 275 234 213 254 253 236 265 349 326 242 224 265 37 42 359 345 339 329 321 314 346 35 248 254 257 274 282 285 286 277 296 315 312 293 290 275 252 243 239 248 255 243 237 240 240 240 241 242 243 244 244 244 244 244 245 244 245 250 253 253 253 253 252 254 254 254 258 259 260 266 269 274 284 299 326 358 12 10
271 296 294 225 270 265 250 286 228 220 257 220 156 271 272 261 352 7 314 241 181 157 74 42 352 338 333 314 311 322 325 284 269 265 251 240 246 251 248 244 250 264 273 278 288 270 247 270 272 255 258 253 240 240 244 244 242 238 234 234 237 240 243 245 249 250 247 246 250 253 254 263 285 299 302 301 293 281 277 281 284 296 326 356 16 17 8 360